Location: Julian California
(33.0790°N, 116.6010°W)
Time: 02:13:25
(UTC-07:00)

Daily predictions for brighter satellites

Satellite Brightness Start Highest point End
(mag) Time Altitude Azimuth Time Altitude Azimuth Time Altitude Azimuth
ATLAS 2AS CENTAUR R/B 4.4 00:35:04 10° NW 00:38:02 23° WNW 00:38:02 23° WNW
CZ-2D R/B 4.1 01:33:22 10° NE 01:35:55 23° ENE 01:35:55 23° ENE
Resurs 1-4 Rocket 3.8 01:42:29 10° NNE 01:45:12 27° NE 01:45:12 27° NE
Lacrosse 5 4.0 01:58:14 21° NNW 01:58:14 21° NNW 02:00:59 10° NNE
BREEZE-M DEB (TANK) 4.3 01:59:11 36° NE 01:59:11 36° NE 02:04:31 10° NE
Cosmos 2227 Rocket 4.1 02:02:03 10° N 02:06:37 25° ENE 02:08:24 21° E
Cosmos 2297 Rocket 3.5 02:04:28 10° N 02:09:36 35° ENE 02:09:51 34° ENE
USA 215 3.4 02:12:05 70° N 02:12:05 70° N 02:18:04 10° NW
SL-16 R/B 3.1 02:14:30 52° ENE 02:14:40 52° ENE 02:20:43 10° N
USA 281 3.2 02:27:06 79° NNE 02:27:06 79° NNE 02:33:21 10° NNW
COSMOS 2455 3.2 02:22:16 10° NNW 02:27:35 61° NNE 02:27:35 61° NNE
Lacrosse 4 Rocket 3.4 02:34:30 29° NE 02:34:30 29° NE 02:36:48 10° NE
Cosmos 1953 4.5 02:43:44 10° N 02:45:23 23° N 02:45:23 23° N
Cosmos 1725 Rocket 4.2 02:42:12 10° N 02:48:24 64° E 02:49:10 58° ESE
Cosmos 2251 Rocket 4.2 02:44:01 10° NNW 02:47:42 47° NNW 02:47:42 47° NNW
Cosmos 2219 3.3 02:47:05 10° NNW 02:52:43 73° ENE 02:52:43 73° ENE
Cosmos 1459 Rocket 4.2 02:48:32 10° NNW 02:53:41 55° NW 02:53:41 55° NW
IRS-1D 3.9 02:49:37 10° NNE 02:54:41 62° E 02:54:41 62° E
IDEFIX/ARIANE 42P 3.5 02:52:51 10° NNE 02:57:45 39° E 02:58:22 37° ESE
Cosmos 614 Rocket 4.3 02:56:32 10° NNW 03:00:39 59° N 03:00:39 59° N
OAO 2 Rocket 3.8 03:03:19 59° E 03:03:19 59° E 03:07:38 10° ENE
Cosmos 2016 Rocket 3.8 02:56:59 10° N 03:03:12 81° W 03:03:17 81° WSW
BREEZE M DEB (TANK) 4.3 03:02:30 42° SSE 03:03:37 46° ESE 03:25:00 10° ENE
BREEZE-M DEB (TANK) 3.9 03:07:51 31° NNE 03:07:51 31° NNE 03:09:14 10° NE
Cosmos 2061 Rocket 3.9 03:02:43 10° N 03:09:04 78° W 03:09:36 72° SW
Timation 2 Rocket 3.7 03:03:10 10° NNW 03:09:09 87° WSW 03:09:41 75° S
Meteor 2-5 Rocket 4.2 03:09:14 48° SE 03:10:22 57° E 03:15:53 10° NNE
Cosmos 2285 Rocket 4.0 03:11:54 63° S 03:12:57 80° ESE 03:19:24 10° NNE
ADEOS II 2.2 03:09:47 10° N 03:14:41 64° NW 03:14:41 64° NW
Atlas Centaur 2 3.8 03:15:15 29° SSE 03:15:15 29° SSE 03:20:56 10° E
SL-14 R/B 4.4 03:18:38 41° N 03:18:38 41° N 03:21:16 10° N
CZ-2D R/B 3.5 03:13:32 10° NNW 03:17:15 26° NW 03:17:15 26° NW
Cosmos 2360 4.5 03:18:02 52° WNW 03:18:03 52° WNW 03:23:38 10° N
Cosmos 1697 Rocket 3.4 03:21:37 39° WNW 03:21:37 39° WNW 03:26:45 10° N
ARIANE 5 R/B 3.6 03:18:45 10° NNE 03:23:31 39° E 03:25:20 29° SE
Cosmos 1420 Rocket 4.0 03:24:12 61° SSE 03:24:52 69° ESE 03:30:02 10° NNE
Meteor 1-16 Rocket 4.4 03:20:44 10° NNW 03:26:15 53° W 03:26:15 53° W
Resurs 1-4 Rocket 3.7 03:23:03 10° NNW 03:26:17 21° WNW 03:26:17 21° WNW
NOSS 3-2 (A) 4.4 03:31:22 25° SSE 03:33:27 33° ESE 03:38:36 10° NE
Cosmos 1980 Rocket 2.2 03:32:55 58° WSW 03:33:38 64° WNW 03:39:16 10° NNE
Cosmos 1626 4.2 03:39:23 17° NW 03:39:23 17° NW 03:40:40 10° NNW
CZ-4B R/B 3.8 03:34:24 10° NNE 03:39:25 63° ESE 03:41:18 37° SSE
APEX 4.0 03:40:44 10° NNW 03:45:41 84° WSW 03:51:48 10° SSE
Cosmos 407 Rocket 3.4 03:41:06 10° NNW 03:46:26 72° WSW 03:48:26 39° S
Cosmos 1346 Rocket 4.5 03:46:57 18° SE 03:49:02 29° E 03:52:26 10° NNE
Cosmos 2227 Rocket 2.8 03:45:33 10° NW 03:50:07 36° W 03:50:07 36° W
CBERS-1 4.4 03:46:03 10° N 03:50:50 43° WNW 03:51:30 41° W
Cosmos 1300 2.5 03:47:34 10° N 03:51:23 81° W 03:51:24 81° W
Cosmos 2297 Rocket 3.6 03:48:49 10° NW 03:51:35 22° WNW 03:51:35 22° WNW
ADEOS Rocket 3.5 03:49:10 24° S 03:53:52 65° W 04:01:33 10° NNW
Cosmos 2278 4.1 03:52:41 40° WSW 03:54:03 48° WNW 03:59:34 10° N
MSX 3.7 03:51:05 10° N 03:56:52 78° WNW 03:59:31 34° SSW
SL-16 R/B 4.0 03:59:36 19° W 03:59:36 19° W 04:02:56 10° NW
ISS -0.4 04:03:11 10° N 04:04:50 13° NNE 04:06:28 10° ENE
Cosmos 2082 3.7 04:00:16 10° NNW 04:05:51 59° WSW 04:11:26 10° S
SL-16 R/B 2.5 04:04:07 22° S 04:07:47 63° ESE 04:13:23 10° NNE
Cosmos 1452 Rocket 3.4 04:05:20 31° SSW 04:07:56 88° WNW 04:13:13 10° NNE
PAYLOAD A 4.5 04:05:54 10° NNE 04:10:28 51° E 04:14:31 13° S
Cosmos 1606 Rocket 3.9 04:06:32 10° N 04:10:55 65° E 04:15:18 10° SSE
Cosmos 1726 Rocket 4.5 04:06:57 10° N 04:11:11 48° E 04:15:27 10° SSE
IRS-1C 4.4 04:06:03 10° N 04:11:12 51° WNW 04:13:25 31° SW
Lacrosse 4 Rocket 3.7 04:10:47 13° WNW 04:11:26 13° NW 04:13:30 10° NNW
CENTAUR R/B 3.1 04:07:55 17° S 04:11:52 46° ESE 04:17:53 10° NE
Cosmos 292 Rocket 3.8 04:11:22 35° SW 04:13:22 68° WNW 04:18:12 10° N
Cosmos 1954 Rocket 4.0 04:09:01 10° NNW 04:14:19 90° ENE 04:19:37 10° SSE
Cosmos 2228 2.9 04:12:29 10° N 04:16:47 85° W 04:20:33 13° S
Cosmos 1340 3.9 04:18:13 25° WNW 04:18:13 25° WNW 04:21:13 10° NNW
Cosmos 2346 Rocket 4.4 04:12:48 14° S 04:18:10 87° E 04:24:14 10° N
Spot 4 Rocket 4.0 04:17:23 10° NNE 04:22:32 87° WNW 04:26:34 17° SSW
CZ-3B R/B 2.7 04:23:12 18° SSE 04:23:12 18° SSE 04:25:37 10° SE
CZ-2C R/B 3.1 04:24:12 10° NNE 04:28:13 70° E 04:31:50 12° S
Cosmos 1110 Rocket 4.3 04:24:46 12° S 04:29:30 67° ESE 04:34:38 10° NNE
SEDSat Delta rocket 4.2 04:27:07 22° SSW 04:29:41 35° SSE 04:34:01 10° E
Cosmos 1513 Rocket 4.4 04:25:14 10° N 04:31:23 75° W 04:37:25 10° S
Aureole 2 Rocket 1.6 04:31:19 10° NNW 04:34:00 88° WSW 04:36:39 10° SSE
Cosmos 2322 Rocket 2.2 04:30:51 14° SSW 04:35:42 86° ESE 04:41:25 10° NNE
Cosmos 1464 Rocket 3.9 04:29:55 10° N 04:36:04 75° W 04:42:16 10° S
SWAS 4.4 04:33:36 22° SSW 04:36:22 72° WNW 04:40:39 10° NNE
CZ-2C R/B 2.5 04:31:33 10° NNE 04:36:43 88° WNW 04:41:54 10° SSW
IDEFIX/ARIANE 42P 4.0 04:33:09 10° NNW 04:37:01 21° WNW 04:39:11 17° W
Cosmos 2034 Rocket 4.0 04:39:22 10° N 04:45:44 89° E 04:52:00 10° S
Meteor 1-21 Rocket 4.2 04:40:21 10° S 04:45:58 88° E 04:51:32 10° N
Meteor 2-10 Rocket 3.8 04:41:50 10° NNW 04:47:18 52° W 04:52:32 10° SSW
OAO 2 Rocket 3.6 04:42:15 11° W 04:47:18 71° N 04:52:37 10° E
Cosmos 2263 Rocket 2.2 04:41:58 10° NNW 04:47:39 84° WSW 04:53:19 10° SSE
OAO 1 Rocket 4.5 04:45:25 15° W 04:49:50 85° NNW 04:55:13 10° ENE
USA 32 4.0 04:46:51 10° N 04:52:06 74° W 04:57:18 10° S
ALOS 2.4 04:48:47 10° NNE 04:53:26 76° ESE 04:58:04 10° S
SL-08 R/B 3.9 04:49:44 10° SSW 04:54:00 34° W 04:58:16 10° NNW
IRAS Rocket 4.5 04:50:56 10° SSE 04:56:28 76° ENE 05:02:04 10° N
Cosmos 2360 Rocket 2.4 04:53:25 10° SSW 04:59:03 76° ESE 05:04:43 10° NNE
Cosmos 2219 Rocket 4.3 04:55:35 10° SSE 05:00:06 25° ESE 05:04:39 10° NE
NOSS 3-2 (C) 3.2 04:55:09 10° SSW 05:00:31 83° WNW 05:06:34 10° NNE
Cosmos 1441 Rocket 4.1 04:56:57 10° S 05:00:44 52° E 05:04:34 10° NNE
ARIANE 5 R/B 4.0 04:58:39 10° NNW 05:02:16 20° WNW 05:05:40 11° WSW
Atlas Centaur 2 2.8 04:57:48 12° WSW 05:04:21 54° SSE 05:10:05 10° E
ATLAS 2A CENTAUR R/B 3.3 05:00:51 12° SW 05:04:27 42° SSE 05:17:21 10° E
Cosmos 2237 4.2 04:59:01 10° SSW 05:04:43 78° WNW 05:10:26 10° NNE
SL-24 R/B 3.7 05:05:55 10° S 05:09:33 80° WSW 05:13:30 10° NNW
PSLV R/B 3.6 05:06:15 10° N 05:10:23 60° WNW 05:14:32 10° SSW
OAO 3 Copernicus 4.3 05:06:34 10° WSW 05:11:38 87° SSE 05:16:42 10° ENE
CZ-2C R/B 2.8 05:15:26 10° SW 05:16:36 12° SSW 05:17:46 10° S
SJ-6F 4.4 05:19:36 10° N 05:23:40 75° WNW 05:27:41 10° SSW
NOSS 3-2 (A) 4.4 05:19:22 10° WSW 05:24:10 30° NW 05:29:29 10° NNE
